Lapse_Rate
5.6 5.6 5.7 5.8 6.2 6.3 6.2 6.1 6.2 6.4 6.5 6.5 6.4 5.9 5.6 5.8 5.6 5.2 5.1 5.3 5.1 4.8 5.6 5.6 5.5 5.5 5.4 5.4 5.5 5.4 5.6 5.6 5.9 5.4 5.5 5.5 5.4 5.3 5.6 5.6 5.5 5.5 5.5
5.6 5.5 5.5 5.6 5.8 6.1 6.3 6.3 6.1 6.2 6.3 6.3 6.4 6.4 6.1 6.0 5.7 5.4 5.2 5.3 5.4 5.3 5.4 5.4 5.3 5.2 5.2 5.2 5.3 5.3 5.8 5.7 5.8 5.6 5.6 5.4 5.2 5.3 5.4 5.5 5.4 5.5 5.2
5.6 5.4 5.5 5.6 5.7 5.7 5.7 5.8 6.0 6.1 6.1 6.2 6.2 6.3 6.4 6.4 6.1 5.7 5.3 5.2 5.4 5.4 5.5 5.2 5.2 5.3 5.3 5.2 5.1 5.2 5.6 5.9 6.0 6.1 5.1 5.4 5.6 5.6 5.5 5.7 5.6 5.6 5.5
5.6 5.6 5.6 5.5 5.4 5.4 5.4 5.5 5.6 5.7 5.9 6.0 5.9 5.9 6.0 6.1 6.1 6.2 5.5 5.0 5.1 5.4 5.6 5.6 5.5 5.3 5.5 5.5 5.5 5.5 5.5 5.7 5.9 6.0 5.8 5.5 5.5 5.1 5.6 5.5 5.6 5.7 5.6
5.8 5.7 5.7 5.6 5.4 5.3 5.2 5.2 5.2 5.3 5.4 5.8 5.7 5.6 5.7 5.8 5.8 5.8 5.7 5.3 5.3 5.5 5.9 5.6 5.7 5.9 5.9 5.7 5.7 5.7 5.9 5.8 5.9 5.9 6.0 5.8 5.5 5.8 5.2 5.5 5.8 5.6 5.5
5.8 5.9 5.8 5.6 5.5 5.4 5.4 5.3 5.1 5.1 5.3 5.4 5.6 5.5 5.5 5.4 5.4 5.6 5.4 5.4 4.9 4.8 4.9 4.8 5.3 5.6 5.6 5.4 5.3 5.4 5.4 5.7 5.9 6.0 6.0 6.0 5.5 5.8 5.4 5.5 5.4 5.3 5.4
6.1 6.0 5.8 5.6 5.5 5.5 5.6 5.5 5.3 5.2 5.2 5.4 5.6 5.5 5.2 5.3 5.1 5.3 5.4 5.1 5.3 5.2 5.3 5.1 5.0 4.8 5.0 4.8 4.7 4.7 4.7 4.6 4.7 5.4 5.6 5.8 5.2 5.6 5.9 6.3 5.7 5.5 5.6
6.2 6.0 5.7 5.6 5.6 5.6 5.7 5.8 5.8 5.6 5.5 5.5 5.6 5.6 5.4 5.1 5.0 5.1 5.3 5.2 4.9 5.0 5.2 5.1 5.3 5.5 5.4 5.3 5.2 4.8 4.8 4.8 4.5 4.8 4.3 4.5 5.1 5.1 5.2 5.6 5.4 5.6 5.4
6.0 6.1 5.9 5.8 5.8 5.8 5.9 6.0 6.1 6.1 5.9 5.7 5.7 5.6 5.5 5.3 5.1 4.9 4.9 5.1 5.1 5.1 5.2 5.2 5.1 5.2 5.4 5.2 5.1 5.1 5.0 5.1 4.9 5.0 5.1 4.9 5.0 5.2 5.2 5.3 5.8 6.2 5.5
5.9 6.1 6.2 6.0 5.9 6.0 6.3 6.4 6.4 6.5 6.5 6.1 5.7 5.6 5.6 5.5 5.4 5.2 4.9 4.5 4.9 4.9 4.9 4.9 5.0 4.9 4.9 5.0 5.1 5.2 5.1 4.9 4.7 4.7 4.9 4.8 5.1 5.4 5.4 5.3 5.7 5.5 5.7
5.7 5.8 6.1 6.2 6.3 6.4 6.5 6.5 6.5 6.4 6.3 6.3 5.9 5.5 5.8 5.5 5.5 5.4 5.3 5.2 5.0 4.9 4.8 4.9 5.0 5.0 5.0 5.1 4.9 4.6 4.6 4.6 4.7 5.0 4.9 5.0 5.0 5.0 5.1 5.5 5.4 5.3 5.3
5.6 5.7 5.9 6.2 6.5 6.4 6.4 6.6 6.5 6.0 5.9 6.0 5.9 5.8 5.9 5.5 5.5 5.5 5.4 5.3 5.1 5.0 5.0 5.0 5.0 5.0 5.0 5.0 4.9 4.9 4.8 4.7 4.7 4.6 4.6 4.9 4.8 4.8 4.9 5.4 5.2 5.1 5.0
6.0 6.0 6.1 6.1 6.1 6.1 6.3 6.5 6.2 5.8 5.8 5.9 6.0 5.9 5.5 5.5 5.5 5.3 5.3 5.2 5.1 5.1 5.1 5.1 5.1 5.0 4.9 4.8 4.8 4.9 4.8 4.8 4.9 4.8 4.6 4.4 4.0 4.0 4.3 4.4 4.9 5.0 4.8
5.9 5.8 6.0 6.2 6.3 6.4 6.4 6.4 5.9 5.7 5.8 6.0 5.9 5.9 5.7 5.4 5.4 5.5 5.4 5.2 5.3 5.2 5.3 5.2 5.1 5.1 4.9 4.8 4.8 5.0 5.0 4.9 4.7 4.7 4.6 4.6 4.5 4.4 4.3 4.1 4.0 4.3 4.5
5.8 5.6 5.7 6.1 6.3 6.6 6.4 6.2 6.0 5.8 5.8 6.0 6.0 6.0 5.6 5.3 5.4 5.3 5.1 5.2 5.3 5.3 5.3 5.2 5.1 5.0 4.9 4.9 4.9 5.0 4.9 4.9 4.7 4.6 4.5 4.4 4.3 4.2 4.3 4.2 4.1 4.3 4.3
5.6 5.9 5.7 6.3 6.5 6.9 6.3 6.2 6.1 5.9 6.0 6.0 6.0 5.8 5.5 5.4 5.5 5.1 5.2 5.0 5.1 5.1 5.1 5.2 5.0 4.9 4.8 4.7 4.7 4.9 4.8 4.6 4.5 4.3 4.2 4.1 4.0 4.0 4.0 3.9 3.9 3.8 3.8
5.9 6.3 6.5 6.7 6.6 6.2 6.1 6.0 5.9 5.8 5.9 5.8 5.7 5.5 5.2 5.0 4.9 5.0 5.0 5.1 4.9 5.0 5.1 5.1 5.0 4.9 4.8 4.7 4.5 4.3 4.4 4.3 4.2 4.1 4.0 3.8 3.8 3.7 3.6 3.5 3.6 3.6 3.5
5.9 6.1 6.3 6.1 6.0 6.0 5.9 5.7 5.6 5.6 5.4 5.2 5.1 5.0 5.0 4.9 4.9 5.0 5.2 5.2 5.1 5.1 5.0 4.7 4.6 4.8 4.7 4.6 4.4 4.2 4.1 4.0 3.8 3.6 3.5 3.6 3.5 3.4 3.3 3.2 3.3 3.2 3.2
5.9 5.8 6.0 5.8 5.8 5.8 5.8 5.7 5.6 5.5 5.3 5.2 5.1 5.3 5.3 5.2 5.2 5.2 5.1 5.3 5.2 4.9 4.6 4.5 4.5 4.4 4.3 4.1 3.9 3.7 3.8 3.9 3.8 3.7 3.5 3.4 3.4 3.4 3.3 3.1 3.0 3.0 3.1
5.6 5.7 5.6 5.7 5.7 5.5 5.5 5.6 5.5 5.5 5.5 5.5 5.5 5.5 5.4 5.2 5.0 5.0 5.0 4.9 4.5 4.4 4.4 4.3 4.3 4.3 4.1 3.9 3.8 3.7 3.8 3.7 3.7 3.7 3.7 3.5 3.3 3.2 3.3 3.2 3.0 2.8 2.9
5.4 5.4 5.5 5.5 5.3 5.3 5.4 5.5 5.4 5.4 5.4 5.3 5.1 5.0 5.0 4.9 5.1 5.0 4.6 4.5 4.4 4.4 4.4 4.4 4.3 4.3 4.2 4.0 3.9 3.7 3.6 3.6 3.6 3.5 3.3 3.1 3.0 2.9 2.7 2.6 2.6 2.5 2.2
5.6 5.5 5.3 5.1 5.1 5.2 5.2 5.3 5.2 5.2 5.1 5.1 4.9 4.9 4.8 4.8 4.4 4.5 4.6 4.5 4.4 4.3 4.3 4.1 4.1 4.1 4.0 4.0 3.9 3.7 3.6 3.5 3.4 3.4 3.3 3.1 2.9 2.7 2.5 2.4 2.3 2.0 1.7
5.5 5.3 5.1 5.1 5.1 5.1 5.0 5.0 5.0 5.0 4.9 4.8 4.8 4.6 4.5 4.6 4.5 4.5 4.4 4.3 4.3 4.2 4.2 4.2 4.1 4.0 3.9 3.8 3.9 3.8 3.7 3.5 3.3 3.1 3.1 3.2 3.4 3.2 2.9 2.7 2.5 2.2 1.9
5.3 5.1 5.1 5.1 5.0 4.9 4.8 4.9 4.9 4.8 4.9 4.6 4.7 4.6 4.5 4.5 4.4 4.3 4.2 4.1 4.2 4.2 4.4 4.5 4.7 4.7 4.6 4.5 4.4 4.3 4.1 4.0 4.0 3.8 3.6 3.7 3.6 3.6 3.4 3.4 3.2 2.8 2.6
5.1 4.9 5.0 4.9 4.8 4.6 4.6 4.8 4.8 4.9 4.8 4.7 4.6 4.5 4.3 4.2 4.1 4.2 4.3 4.5 4.7 4.7 4.8 4.9 5.2 5.4 5.4 5.2 5.1 4.9 4.8 4.7 4.6 4.4 4.3 4.1 3.8 3.8 3.6 3.5 3.5 3.4 3.3
4.9 4.8 4.7 4.7 4.6 4.6 4.6 4.6 4.7 4.7 4.6 4.5 4.4 4.4 4.4 4.4 4.5 4.5 4.5 4.9 5.0 5.0 5.2 5.4 5.5 5.5 5.5 5.5 5.2 5.0 4.9 4.8 4.6 4.5 4.2 4.1 4.0 3.8 3.8 3.8 3.8 3.8 3.7
Wind_Speed
3 2 3 5 6 6 8 9 11 11 9 6 5 4 6 7 7 12 17 16 16 14 14 9 9 10 7 8 9 6 5 6 5 4 7 7 6 6 7 8 9 10 16
4 2 2 4 5 6 7 9 10 9 8 6 5 3 3 4 7 12 16 21 20 20 16 12 8 9 7 8 8 8 4 4 7 8 7 4 7 8 9 7 8 12 13
6 3 0 3 4 6 7 7 9 10 9 10 6 5 3 4 5 8 8 15 19 19 18 16 11 8 7 7 8 9 8 4 4 10 7 3 8 6 5 12 10 12 9
5 4 3 1 3 3 5 6 7 9 9 10 8 10 7 6 5 5 6 8 17 18 18 15 13 10 7 9 8 8 7 6 4 4 6 8 1 3 3 7 11 11 12
7 7 6 4 1 3 4 5 6 7 8 8 8 6 6 4 4 5 7 8 12 17 18 16 13 9 7 8 9 9 10 7 5 5 4 3 2 2 1 4 4 8 10
7 6 5 4 2 2 3 4 6 6 6 7 7 7 7 7 7 8 7 6 6 7 14 15 14 12 9 7 7 8 10 9 8 7 7 7 4 4 2 2 7 13 10
7 7 7 6 4 3 2 3 5 5 6 6 6 6 6 6 5 3 3 5 5 5 8 10 9 9 12 10 9 7 9 9 8 10 7 6 7 6 5 2 1 3 1
7 7 8 7 6 5 5 5 4 4 4 5 6 5 6 4 4 4 3 4 4 4 10 9 9 10 12 11 11 6 6 7 7 9 8 6 7 7 7 6 5 1 4
7 8 7 7 7 6 6 6 5 4 4 4 4 5 5 5 5 5 4 4 4 7 10 11 8 8 10 11 9 6 8 8 7 7 8 6 6 7 7 6 7 5 1
7 7 8 8 7 7 6 6 5 5 4 4 3 4 3 5 4 4 6 5 5 7 7 7 8 8 10 11 7 7 8 8 7 6 8 7 6 7 6 7 6 5 4
8 8 8 8 7 6 6 6 5 5 4 5 4 5 3 6 4 5 5 6 6 8 7 7 7 7 7 8 8 7 7 7 8 8 8 9 7 5 6 5 5 6 5
6 7 9 9 8 7 6 6 5 5 4 5 5 4 4 5 6 6 5 7 5 8 7 7 7 7 6 6 7 7 7 8 7 7 7 7 6 6 6 4 6 6 6
9 3 6 10 8 7 6 6 6 6 5 6 6 7 7 4 3 5 4 5 4 4 6 6 6 6 5 5 5 6 7 7 7 7 6 6 7 6 3 3 5 5 6
8 4 5 6 7 6 6 6 6 5 4 5 4 4 3 6 5 3 4 4 6 5 5 5 5 6 6 5 3 3 5 6 7 8 7 6 6 5 5 4 3 3 2
7 5 3 4 5 7 6 6 6 4 3 4 4 5 3 2 5 7 5 3 4 5 5 6 6 6 5 6 6 3 3 5 7 8 7 7 10 10 10 5 4 4 3
9 9 5 8 8 8 7 7 5 4 3 3 2 2 2 2 4 6 5 4 4 4 4 5 5 6 6 12 13 9 3 4 6 6 7 8 10 8 13 12 12 9 5
7 8 6 6 7 8 7 5 4 4 2 1 2 2 3 4 5 5 4 5 4 4 4 4 4 4 5 12 12 12 2 3 4 5 5 6 7 9 6 10 13 11 11
6 6 6 8 8 6 6 5 3 3 2 2 1 3 3 5 5 3 4 4 3 4 4 3 4 4 5 12 12 10 2 3 4 4 5 5 6 6 8 6 4 5 4
4 4 5 4 5 5 3 2 2 2 1 3 3 3 5 5 4 4 3 3 3 4 3 4 4 5 4 13 13 9 3 3 4 5 5 5 5 12 14 7 6 4 5
2 3 4 4 4 3 3 2 2 2 4 3 4 5 4 4 3 3 3 3 3 5 5 6 5 9 4 13 13 11 3 3 4 4 4 9 9 15 15 7 5 6 6
3 4 4 4 3 3 3 3 3 4 3 4 4 3 3 5 2 3 2 3 3 4 4 5 5 6 7 7 15 14 6 5 5 4 3 3 14 16 16 17 3 7 9
3 3 3 3 3 3 3 3 2 2 3 3 4 4 3 4 4 3 3 3 3 4 5 5 5 4 5 11 12 14 13 11 5 6 5 7 17 19 18 15 16 17 14
3 3 2 1 2 2 1 2 2 2 2 3 3 4 4 4 4 4 3 3 3 3 4 4 4 5 5 5 14 14 13 13 8 6 11 20 19 17 11 14 19 14 4
2 1 2 1 2 1 3 2 3 2 2 3 3 3 3 3 3 3 3 2 2 3 4 4 5 5 5 5 6 7 7 13 9 12 9 11 13 15 9 7 8 6 3
1 0 1 3 0 3 4 4 3 2 3 3 3 2 4 3 3 4 3 2 4 5 4 3 4 4 4 6 13 12 8 6 9 13 2 2 4 5 6 5 6 4 3
2 1 2 3 3 4 4 3 2 3 3 3 2 2 1 2 3 3 4 10 10 12 13 13 11 6 13 17 19 19 19 18 18 3 1 3 4 5 6 6 7 3 7
Wind_Direction
165 112 40 6 349 2 3 5 2 2 9 1 9 13 36 26 29 29 22 25 25 20 28 26 18 8 356 354 351 333 272 226 203 245 234 237 229 223 229 215 207 197 198
194 162 31 15 10 1 357 3 5 358 8 5 1 35 22 35 36 28 26 20 22 23 28 24 21 11 0 5 360 2 329 294 232 234 247 251 226 228 217 221 208 210 198
207 202 66 13 4 17 8 10 4 0 10 10 15 21 27 40 26 23 20 18 19 23 27 23 21 17 17 11 1 7 356 323 294 237 242 253 253 199 189 210 211 206 203
197 191 188 35 18 20 30 24 19 15 16 11 28 39 47 42 13 19 17 17 19 19 21 16 22 24 19 25 10 8 5 347 349 306 269 240 319 289 229 208 209 206 207
201 200 191 181 89 50 44 36 31 28 22 26 28 32 37 37 24 15 17 18 19 19 12 8 13 19 25 25 20 14 18 15 6 10 328 324 229 166 265 313 218 211 218
209 198 186 167 156 83 61 51 48 33 30 38 36 45 47 34 35 26 19 13 13 15 16 7 7 10 10 21 21 19 29 22 21 23 21 21 355 354 325 257 249 231 209
194 189 182 186 184 151 116 90 59 46 38 44 45 43 43 49 54 17 15 7 4 10 2 13 13 8 10 14 15 21 38 26 32 22 19 19 14 4 326 299 157 315 26
206 199 192 184 184 170 145 124 108 91 65 54 47 42 40 40 34 36 24 18 9 355 354 1 14 15 13 13 25 25 24 28 36 27 29 20 11 14 15 1 349 314 9
210 204 193 185 175 170 170 157 139 125 109 94 75 55 51 44 35 28 26 22 9 17 6 3 4 6 12 17 15 23 24 22 32 24 30 28 10 16 7 19 17 336 352
228 202 195 187 179 171 161 154 149 137 127 106 106 84 55 59 23 31 25 22 17 3 8 7 7 9 17 12 12 25 17 25 21 23 25 26 25 24 6 13 8 16 346
242 213 197 185 176 163 158 151 141 123 107 100 87 74 42 53 18 32 21 13 14 8 12 7 7 9 15 13 18 10 20 23 19 18 27 15 25 29 20 15 13 5 7
302 227 187 169 169 171 156 150 140 126 114 99 80 68 66 77 45 16 8 12 12 15 12 6 5 5 7 12 19 17 8 9 15 16 15 18 14 18 12 3 16 16 15
325 245 172 177 169 162 153 147 139 125 109 85 64 45 33 23 30 21 345 358 1 4 8 10 8 1 350 351 5 16 9 5 6 2 2 12 6 355 349 26 27 18 357
326 264 201 173 154 151 146 135 117 112 115 123 124 94 3 33 8 323 344 351 354 359 0 358 356 356 344 340 340 24 17 6 360 353 352 352 344 328 335 353 355 354 337
337 305 224 157 138 136 131 127 120 105 105 87 71 67 49 309 14 8 347 355 3 2 4 6 3 358 348 344 349 29 42 13 356 349 349 348 338 356 352 346 333 340 333
334 334 173 150 151 143 137 124 116 99 103 117 124 89 50 7 11 355 345 4 357 354 1 3 360 3 354 340 347 355 49 17 359 343 339 335 334 339 342 339 334 335 339
0 23 43 95 108 114 119 120 110 116 130 170 101 66 32 5 348 336 347 357 351 346 347 347 0 347 329 343 343 340 47 359 337 329 325 332 335 335 316 317 319 314 309
15 30 60 78 77 85 90 107 125 139 121 108 74 44 4 337 320 329 349 342 339 339 332 327 342 336 329 342 341 335 334 299 292 301 306 310 310 321 320 310 348 324 301
54 52 64 76 77 79 98 129 129 109 138 81 47 7 335 320 325 336 332 328 330 323 316 346 340 328 325 345 341 344 287 271 284 290 290 294 307 313 312 322 310 291 276
102 96 82 79 73 49 54 89 87 79 68 32 352 307 307 317 314 344 333 320 331 346 349 348 352 340 341 342 341 344 345 308 311 304 286 320 322 319 318 313 289 279 283
113 77 78 90 73 46 37 65 58 61 18 335 309 332 1 331 350 352 335 336 346 352 350 342 328 328 330 329 336 334 327 324 325 327 304 284 310 309 310 308 335 302 307
78 93 88 78 60 42 48 46 37 349 317 330 335 344 338 326 340 333 330 336 0 346 330 326 317 307 300 316 325 325 323 317 328 320 312 294 298 309 315 324 318 314 332
73 67 108 153 125 63 275 301 329 24 340 334 340 329 326 339 354 334 333 332 342 329 309 302 301 294 302 290 307 312 306 307 306 294 290 302 313 315 323 312 313 336 325
110 92 77 22 327 254 328 336 320 15 337 324 323 319 338 327 348 340 338 315 298 292 287 285 276 269 270 269 270 273 278 281 281 278 281 285 299 318 331 338 317 303 278
11 247 284 278 320 341 317 324 344 353 321 305 304 337 320 326 314 315 267 259 265 254 267 262 274 292 284 287 300 317 312 298 294 311 341 24 354 319 306 307 303 292 312
257 307 321 318 311 304 301 320 334 334 309 296 310 304 275 280 303 295 299 313 311 312 312 311 312 303 310 313 315 317 315 315 319 61 340 316 312 303 302 299 291 278 301